When you browse on this site, cookies collect data to enhance your experience and personalize the content and advertising you see.
Visit our Privacy Policy to learn more. By continuing to use the site, you agree to this use of cookies and data.
  • In United Kingdom
  • List of Countries
  • For 7 days
  • Water Temperature
  • Weather Map
  • Weather Widgets
  • user-avatar
    Login

    Hourly Weather Abomey

    Today, 7 December, Saturday

    Time Temperature Precipitation Wind Pressure Humidity
    00:00 +27°C° 0 mm 1 mps 738 mmHg 72%
    01:00 +27°C° 0 mm 1 mps 738 mmHg 73%
    02:00 +26°C° 0 mm 1 mps 737 mmHg 75%
    03:00 +26°C° 0 mm 1 mps 737 mmHg 77%
    04:00 +26°C° 0 mm 1 mps 737 mmHg 78%
    05:00 +26°C° 0 mm 1 mps 738 mmHg 79%
    06:00 +24°C° 0 mm 0 mps 738 mmHg 79%
    07:00 +28°C° 0 mm 1 mps 738 mmHg 71%
    08:00 +30°C° 0 mm 1 mps 738 mmHg 63%
    09:00 +32°C° 0 mm 1 mps 739 mmHg 55%
    10:00 +33°C° 0 mm 1 mps 738 mmHg 47%
    11:00 +36°C° 0 mm 2 mps 738 mmHg 40%
    12:00 +37°C° 0 mm 1 mps 737 mmHg 33%
    13:00 +37°C° 0 mm 1 mps 737 mmHg 33%
    14:00 +38°C° 0 mm 2 mps 736 mmHg 33%
    15:00 +37°C° 0 mm 2 mps 736 mmHg 33%
    16:00 +36°C° 0 mm 2 mps 736 mmHg 38%
    17:00 +35°C° 0 mm 2 mps 736 mmHg 43%
    18:00 +32°C° 0 mm 2 mps 737 mmHg 47%
    19:00 +31°C° 0 mm 2 mps 737 mmHg 55%
    20:00 +30°C° 0 mm 2 mps 738 mmHg 62%
    21:00 +29°C° 0 mm 2 mps 738 mmHg 70%
    22:00 +28°C° 0 mm 2 mps 738 mmHg 73%
    23:00 +28°C° 0 mm 2 mps 738 mmHg 76%

    Tomorrow, 8 December, Sunday

    Time Temperature Precipitation Wind Pressure Humidity
    00:00 +27°C° 0 mm 2 mps 738 mmHg 79%
    01:00 +27°C° 0 mm 2 mps 737 mmHg 81%
    02:00 +26°C° 0 mm 1 mps 737 mmHg 84%
    03:00 +26°C° 0 mm 1 mps 737 mmHg 86%
    04:00 +26°C° 0 mm 1 mps 737 mmHg 88%
    05:00 +25°C° 0 mm 1 mps 738 mmHg 89%
    06:00 +23°C° 0 mm 0 mps 738 mmHg 91%
    07:00 +27°C° 0 mm 1 mps 738 mmHg 80%
    08:00 +29°C° 0 mm 1 mps 739 mmHg 70%
    09:00 +32°C° 0 mm 1 mps 739 mmHg 59%
    10:00 +33°C° 0 mm 1 mps 739 mmHg 51%
    11:00 +35°C° 0 mm 1 mps 738 mmHg 43%
    12:00 +37°C° 0 mm 1 mps 738 mmHg 34%
    13:00 +37°C° 0 mm 1 mps 737 mmHg 33%
    14:00 +38°C° 0 mm 2 mps 737 mmHg 31%
    15:00 +38°C° 0 mm 2 mps 736 mmHg 29%
    16:00 +36°C° 0 mm 2 mps 736 mmHg 39%
    17:00 +34°C° 0 mm 3 mps 736 mmHg 49%
    18:00 +32°C° 0 mm 4 mps 736 mmHg 59%
    19:00 +30°C° 0 mm 4 mps 737 mmHg 64%
    20:00 +29°C° 0 mm 3 mps 737 mmHg 69%
    21:00 +28°C° 0 mm 3 mps 738 mmHg 74%
    22:00 +27°C° 0 mm 3 mps 738 mmHg 76%
    23:00 +27°C° 0 mm 3 mps 738 mmHg 78%

    Day after tomorrow, 9 December, Monday

    Time Temperature Precipitation Wind Pressure Humidity
    00:00 +27°C° 0 mm 3 mps 738 mmHg 81%
    01:00 +26°C° 0 mm 2 mps 738 mmHg 83%
    02:00 +26°C° 0 mm 2 mps 737 mmHg 85%
    03:00 +26°C° 0 mm 1 mps 737 mmHg 87%
    04:00 +25°C° 0 mm 1 mps 737 mmHg 88%
    05:00 +25°C° 0 mm 1 mps 738 mmHg 90%
    06:00 +25°C° 0 mm 1 mps 738 mmHg 91%
    07:00 +27°C° 0 mm 1 mps 739 mmHg 82%
    08:00 +29°C° 0 mm 2 mps 739 mmHg 72%
    09:00 +31°C° 0 mm 2 mps 739 mmHg 62%
    10:00 +33°C° 0 mm 1 mps 739 mmHg 53%
    11:00 +35°C° 0 mm 1 mps 739 mmHg 44%
    12:00 +37°C° 0 mm 1 mps 738 mmHg 35%
    13:00 +37°C° 0 mm 1 mps 737 mmHg 34%
    14:00 +37°C° 0 mm 1 mps 737 mmHg 32%
    15:00 +38°C° 0 mm 2 mps 736 mmHg 31%
    16:00 +36°C° 0 mm 2 mps 736 mmHg 40%
    17:00 +34°C° 0 mm 3 mps 736 mmHg 49%
    18:00 +32°C° 0 mm 4 mps 736 mmHg 59%
    19:00 +30°C° 0 mm 4 mps 737 mmHg 63%
    20:00 +29°C° 0 mm 4 mps 737 mmHg 68%
    21:00 +28°C° 0 mm 4 mps 738 mmHg 73%
    22:00 +28°C° 0 mm 3 mps 738 mmHg 75%
    23:00 +27°C° 0 mm 3 mps 738 mmHg 77%

    10 December, Tuesday

    Time Temperature Precipitation Wind Pressure Humidity
    00:00 +27°C° 0 mm 3 mps 738 mmHg 79%
    01:00 +27°C° 0 mm 3 mps 738 mmHg 81%
    02:00 +26°C° 0 mm 2 mps 737 mmHg 83%
    03:00 +26°C° 0 mm 1 mps 737 mmHg 85%
    04:00 +25°C° 0 mm 1 mps 737 mmHg 87%
    05:00 +25°C° 0 mm 1 mps 738 mmHg 88%
    06:00 +25°C° 0 mm 1 mps 738 mmHg 89%
    07:00 +27°C° 0 mm 1 mps 738 mmHg 80%
    08:00 +29°C° 0 mm 2 mps 739 mmHg 71%
    09:00 +31°C° 0 mm 2 mps 739 mmHg 62%
    10:00 +34°C° 0.1 mm 2 mps 739 mmHg 55%
    11:00 +35°C° 0.1 mm 1 mps 739 mmHg 48%
    12:00 +35°C° 0.1 mm 0 mps 738 mmHg 41%
    13:00 +36°C° 0.1 mm 1 mps 738 mmHg 39%
    14:00 +37°C° 0.1 mm 2 mps 737 mmHg 38%
    15:00 +37°C° 0.1 mm 2 mps 736 mmHg 36%
    16:00 +35°C° 0 mm 3 mps 736 mmHg 45%
    17:00 +33°C° 0 mm 3 mps 736 mmHg 53%
    18:00 +30°C° 0 mm 4 mps 736 mmHg 62%
    19:00 +29°C° 0 mm 3 mps 737 mmHg 66%
    20:00 +28°C° 0 mm 3 mps 737 mmHg 71%
    21:00 +27°C° 0 mm 3 mps 738 mmHg 75%
    22:00 +27°C° 0 mm 3 mps 738 mmHg 77%
    23:00 +27°C° 0 mm 3 mps 738 mmHg 79%

    11 December, Wednesday

    Time Temperature Precipitation Wind Pressure Humidity
    00:00 +26°C° 0 mm 3 mps 738 mmHg 81%
    01:00 +26°C° 0 mm 2 mps 737 mmHg 84%
    02:00 +26°C° 0 mm 1 mps 737 mmHg 87%
    03:00 +25°C° 0 mm 1 mps 737 mmHg 90%
    04:00 +25°C° 0 mm 1 mps 737 mmHg 91%
    05:00 +25°C° 0 mm 1 mps 738 mmHg 93%
    06:00 +25°C° 0 mm 1 mps 738 mmHg 94%
    07:00 +26°C° 0 mm 1 mps 738 mmHg 84%
    08:00 +28°C° 0 mm 2 mps 739 mmHg 74%
    09:00 +30°C° 0 mm 3 mps 739 mmHg 64%
    10:00 +32°C° 0 mm 2 mps 739 mmHg 56%
    11:00 +35°C° 0 mm 2 mps 739 mmHg 48%
    12:00 +36°C° 0 mm 1 mps 738 mmHg 41%
    13:00 +36°C° 0 mm 2 mps 737 mmHg 41%
    14:00 +36°C° 0 mm 2 mps 737 mmHg 41%
    15:00 +36°C° 0 mm 3 mps 736 mmHg 41%
    16:00 +34°C° 0 mm 3 mps 736 mmHg 47%
    17:00 +33°C° 0 mm 3 mps 736 mmHg 54%
    18:00 +30°C° 0 mm 4 mps 736 mmHg 61%
    19:00 +29°C° 0 mm 3 mps 737 mmHg 67%
    20:00 +28°C° 0 mm 3 mps 737 mmHg 72%
    21:00 +27°C° 0 mm 3 mps 738 mmHg 78%
    22:00 +27°C° 0 mm 3 mps 738 mmHg 80%
    23:00 +26°C° 0 mm 3 mps 738 mmHg 81%

    12 December, Thursday

    Time Temperature Precipitation Wind Pressure Humidity
    00:00 +26°C° 0 mm 3 mps 738 mmHg 83%
    01:00 +26°C° 0 mm 2 mps 737 mmHg 86%
    02:00 +25°C° 0 mm 1 mps 737 mmHg 88%
    03:00 +23°C° 0 mm 0 mps 737 mmHg 91%
    04:00 +25°C° 0 mm 1 mps 737 mmHg 92%
    05:00 +24°C° 0 mm 1 mps 737 mmHg 93%
    06:00 +24°C° 0 mm 1 mps 738 mmHg 94%
    07:00 +26°C° 0 mm 1 mps 738 mmHg 83%
    08:00 +28°C° 0 mm 2 mps 739 mmHg 72%
    09:00 +31°C° 0 mm 2 mps 739 mmHg 61%
    10:00 +32°C° 0 mm 2 mps 739 mmHg 52%
    11:00 +35°C° 0 mm 2 mps 738 mmHg 44%
    12:00 +37°C° 0 mm 2 mps 738 mmHg 35%
    13:00 +37°C° 0 mm 2 mps 737 mmHg 34%
    14:00 +37°C° 0 mm 2 mps 737 mmHg 33%
    15:00 +37°C° 0 mm 2 mps 736 mmHg 31%
    16:00 +35°C° 0 mm 3 mps 736 mmHg 41%
    17:00 +33°C° 0 mm 3 mps 736 mmHg 51%
    18:00 +30°C° 0 mm 4 mps 736 mmHg 60%
    19:00 +29°C° 0 mm 4 mps 737 mmHg 66%
    20:00 +28°C° 0 mm 3 mps 737 mmHg 71%
    21:00 +27°C° 0 mm 3 mps 738 mmHg 77%
    22:00 +27°C° 0 mm 3 mps 738 mmHg 79%
    23:00 +26°C° 0 mm 2 mps 738 mmHg 81%
    Show more